Hourly Data Report for October 29, 2015

All times are specified in Local Standard Time (LST). Add 1 hour to adjust for Daylight Saving Time where and when it is observed.

TORONTO INTL A
ONTARIO

43°40'36.000" N
79°37'50.000" W
173.40 m
6158731
71624
YYZ

Download Data

Hourly Data (October 2015)
Hourly Data Report for October 29, 2015
Temp Definition
°C
Dew Point Temp Definition
°C
Rel Hum Definition
%
Wind Dir Definition
10's deg

Wind Spd Definition
km/h
Visibility Definition
km
Stn Press Definition
kPa
Hmdx Definition


Wind Chill Definition


Weather Definition


TIME
00:00 Legend Double Dagger 14.6 13.3 92 21 19 19.3 97.44     LegendNANA
01:00 Legend Double Dagger 13.9 11.5 85 23 25 24.1 97.49     Mostly Cloudy
02:00 Legend Double Dagger 13.0 10.2 83 23 26 24.1 97.52     LegendNANA
03:00 Legend Double Dagger 11.9 8.4 79 21 21 24.1 97.52     LegendNANA
04:00 Legend Double Dagger 11.9 7.8 76 22 21 24.1 97.49     Mostly Cloudy
05:00 Legend Double Dagger 11.5 8.4 81 19 13 19.3 97.43     Rain
06:00 Legend Double Dagger 11.3 7.3 76 22 22 24.1 97.43     LegendNANA
07:00 Legend Double Dagger 7.9 -1.3 52 23 53 24.1 97.55     Mainly Clear
08:00 Legend Double Dagger 7.0 -0.9 57 23 39 24.1 97.73     LegendNANA
09:00 Legend Double Dagger 6.7 -2.5 52 23 45 24.1 97.82     LegendNANA
10:00 Legend Double Dagger 7.6 -3.0 47 24 43 24.1 97.83     Mainly Clear
11:00 Legend Double Dagger 7.7 -3.8 44 25 41 24.1 97.84     LegendNANA
12:00 Legend Double Dagger 8.5 -3.0 44 24 40 24.1 97.87     LegendNANA
13:00 Legend Double Dagger 7.8 -2.0 50 25 44 24.1 97.87     Mostly Cloudy
14:00 Legend Double Dagger 7.8 -2.0 50 23 39 24.1 97.94     LegendNANA
15:00 Legend Double Dagger 7.5 -1.5 53 24 39 24.1 98.00     LegendNANA
16:00 Legend Double Dagger 7.0 -0.9 57 23 34 24.1 98.07     Cloudy
17:00 Legend Double Dagger 6.9 -0.3 60 23 35 24.1 98.12     LegendNANA
18:00 Legend Double Dagger 7.0 0.7 64 24 44 24.1 98.18     LegendNANA
19:00 Legend Double Dagger 7.1 1.8 69 25 33 24.1 98.27     Cloudy
20:00 Legend Double Dagger 6.8 1.9 71 24 28 24.1 98.34     LegendNANA
21:00 Legend Double Dagger 6.8 2.7 75 25 27 24.1 98.39     LegendNANA
22:00 Legend Double Dagger 6.8 3.6 80 25 30 24.1 98.44     Mostly Cloudy
23:00 Legend Double Dagger 7.4 3.8 78 26 25 24.1 98.52     LegendNANA

Notes on Data Quality.

Legend

  • E = Estimated
  • M = Missing
  • NA = Not Available
  • ‡ = Partner data that is not subject to review by the National Climate Archives
Date modified: